Regional Weather Roundup
Issued by NWS

Home | Current Version | Previous Version | Text Only | Print | Product List | Glossary Off
Versions: 1 2 3 4 5 6 7 8 9 10 11 12 13 14 15 16 17 18 19 20 21 22 23 24 25 26 27 28 29 30 31 32 33 34 35 36 37 38 39 40 41 42 43 44 45 46 47 48 49 50

000
ASUS43 KLMK 101110
RWRKY
KENTUCKY REGIONAL WEATHER ROUNDUP
NATIONAL WEATHER SERVICE LOUISVILLE KY
600 AM EST SAT DEC 10 2016

NOTE "FAIR" INDICATES FEW OR NO CLOUDS BELOW 12,000 FEET
WITH NO SIGNIFICANT WEATHER AND/OR OBSTRUCTIONS TO VISIBILITY.

KYZ001>023-026-027-061>063-070>075-101200-
WESTERN AND SOUTH CENTRAL KENTUCKY

CITY           SKY/WX    TMP DP  RH WIND       PRES   REMARKS
PADUCAH        CLEAR     15  11  83 CALM      30.60R
HENDERSON      CLOUDY    23  18  80 CALM      30.59S
OWENSBORO      CLOUDY    21  18  88 CALM      30.59S
HOPKINSVILLE   CLEAR     19  16  86 CALM      30.57S
BOWLING GREEN  CLEAR     18  14  84 CALM      30.59S
GLASGOW        CLEAR     15  15 100 CALM      30.58R
$$

KYZ024-025-028>034-038-045-046-053-101200-
NORTH CENTRAL KENTUCKY

CITY           SKY/WX    TMP DP  RH WIND       PRES   REMARKS
LOUISVILLE/SDF PTCLDY    22  13  68 SW6       30.58R WCI  14
LOUISVILLE/LOU CLEAR     21  14  74 CALM      30.58R
FORT KNOX      MOCLDY    15  12  87 SW1       30.55R
$$

KYZ035>037-039>044-047>052-055>060-089>105-101200-
NORTHEAST KENTUCKY

CITY           SKY/WX    TMP DP  RH WIND       PRES   REMARKS
LEXINGTON      CLEAR     19  13  77 S3        30.54F
COVINGTON      CLOUDY    20  16  84 W3        30.53S
FRANKFORT      CLEAR     15  10  80 W3        30.55S
$$

KYZ054-064>069-076>088-106>120-101200-
SOUTHEAST KENTUCKY

CITY           SKY/WX    TMP DP  RH WIND       PRES   REMARKS
JACKSON        CLOUDY    19  15  84 CALM      30.52R
LONDON         CLEAR     14   9  80 CALM      30.54R
SOMERSET       CLEAR     14  12  92 CALM      30.58R
MIDDLESBORO    CLEAR     15  13  92 CALM      30.56R
MONTICELLO     MOSUNNY   11   9  92 CALM      30.58R
$$




USA.gov is the U.S. government's official web portal to all federal, state and local government web resources and services.